timestamp,wind_dir_avg,wind_spd_avg,wind_spd_max_dir,wind_spd_gust,battery_voltage,lat,long
2023-05-03 00:04:00+00:00,77.0,5.89,86.0,9.62,12.81,47.59359,-54.27349
2023-05-03 00:14:00+00:00,75.0,8.46,80.0,10.15,12.41,47.59359,-54.27349
2023-05-03 00:24:00+00:00,76.0,9.16,78.0,10.72,12.41,47.59359,-54.27349
2023-05-03 00:34:00+00:00,67.0,8.38,68.0,9.89,12.41,47.59359,-54.27349
2023-05-03 00:44:00+00:00,63.0,8.26,67.0,9.73,12.41,47.59359,-54.27349
2023-05-03 00:54:00+00:00,64.0,8.39,63.0,9.88,12.41,47.59359,-54.27349
2023-05-03 01:04:00+00:00,60.0,4.96,66.0,6.62,12.41,47.59359,-54.27349
2023-05-03 01:14:01+00:00,63.0,4.07,75.0,7.07,12.33,47.59359,-54.27349
2023-05-03 01:24:01+00:00,48.0,6.31,56.0,8.02,12.33,47.59359,-54.27349
2023-05-03 01:34:01+00:00,46.0,7.99,45.0,9.04,12.33,47.59359,-54.27349
2023-05-03 01:44:01+00:00,51.0,9.28,57.0,10.51,12.33,47.59359,-54.27349
2023-05-03 01:54:01+00:00,45.0,10.06,44.0,11.2,12.33,47.59359,-54.27349
2023-05-03 02:04:01+00:00,41.0,6.94,48.0,7.89,12.33,47.59359,-54.27349
2023-05-03 02:14:00+00:00,33.0,7.08,32.0,8.08,12.33,47.59359,-54.27349
2023-05-03 02:24:00+00:00,34.0,7.81,35.0,8.75,12.33,47.59359,-54.27349
2023-05-03 02:34:00+00:00,38.0,8.83,39.0,10.53,12.33,47.59359,-54.27349
2023-05-03 02:44:00+00:00,37.0,8.74,40.0,10.18,12.33,47.59359,-54.27349
2023-05-03 02:54:00+00:00,42.0,8.22,38.0,9.19,12.33,47.59359,-54.27349
2023-05-03 03:04:00+00:00,42.0,9.64,43.0,10.77,12.33,47.59359,-54.27349
2023-05-03 03:14:00+00:00,43.0,8.74,42.0,10.18,12.25,47.59359,-54.27349
2023-05-03 03:24:00+00:00,34.0,7.32,33.0,8.63,12.25,47.59359,-54.27349
2023-05-03 03:34:00+00:00,37.0,6.61,40.0,7.38,12.25,47.59359,-54.27349
2023-05-03 03:44:00+00:00,44.0,5.58,58.0,6.67,12.25,47.59359,-54.27349
2023-05-03 03:54:00+00:00,43.0,4.66,44.0,5.54,12.25,47.59359,-54.27349
2023-05-03 04:04:00+00:00,41.0,3.41,43.0,4.26,12.25,47.59359,-54.27349
2023-05-03 04:14:00+00:00,44.0,3.89,42.0,4.35,12.25,47.59359,-54.27349
2023-05-03 04:24:00+00:00,42.0,5.03,42.0,5.34,12.25,47.59359,-54.27349
2023-05-03 04:34:00+00:00,36.0,4.35,36.0,4.7,12.25,47.59359,-54.27349
2023-05-03 04:44:00+00:00,32.0,5.0,33.0,5.66,12.25,47.59359,-54.27349
2023-05-03 04:54:00+00:00,37.0,4.19,39.0,4.92,12.25,47.59359,-54.27349
2023-05-03 05:04:00+00:00,32.0,5.17,37.0,5.77,12.25,47.59359,-54.27349
2023-05-03 05:14:00+00:00,30.0,4.98,30.0,5.48,12.25,47.59359,-54.27349
2023-05-03 05:24:00+00:00,32.0,4.05,39.0,5.07,12.25,47.59359,-54.27349
2023-05-03 05:34:00+00:00,25.0,3.87,23.0,4.35,12.25,47.59359,-54.27349
2023-05-03 05:44:00+00:00,24.0,2.85,27.0,3.25,12.25,47.59359,-54.27349
2023-05-03 05:54:00+00:00,45.0,4.37,46.0,5.22,12.25,47.59359,-54.27349
2023-05-03 06:04:00+00:00,31.0,4.16,34.0,4.7,12.25,47.59359,-54.27349
2023-05-03 06:14:01+00:00,29.0,4.78,30.0,5.04,12.17,47.59359,-54.27349
2023-05-03 06:24:01+00:00,32.0,3.64,33.0,4.26,12.17,47.59359,-54.27349
2023-05-03 06:34:01+00:00,35.0,5.47,38.0,5.85,12.17,47.59359,-54.27349
2023-05-03 06:44:01+00:00,55.0,8.51,64.0,10.34,12.17,47.59359,-54.27349
2023-05-03 06:54:01+00:00,49.0,7.12,59.0,9.92,12.17,47.59359,-54.27349
2023-05-03 07:04:01+00:00,48.0,6.66,60.0,9.47,12.17,47.59359,-54.27349
2023-05-03 07:14:01+00:00,45.0,5.71,40.0,6.29,12.17,47.59359,-54.27349
2023-05-03 07:24:01+00:00,51.0,5.18,47.0,5.67,12.17,47.59359,-54.27349
2023-05-03 07:34:01+00:00,54.0,4.61,46.0,5.76,12.17,47.59359,-54.27349
2023-05-03 07:44:01+00:00,49.0,5.34,48.0,5.84,12.17,47.59359,-54.27349
2023-05-03 07:54:01+00:00,51.0,5.16,50.0,6.04,12.17,47.59359,-54.27349
2023-05-03 08:04:01+00:00,50.0,6.35,62.0,8.82,12.17,47.59359,-54.27349
2023-05-03 08:14:01+00:00,50.0,6.02,61.0,7.62,12.09,47.59359,-54.27349
2023-05-03 08:24:01+00:00,47.0,5.91,52.0,6.91,12.09,47.59359,-54.27349
2023-05-03 08:34:01+00:00,43.0,6.08,50.0,6.94,12.09,47.59359,-54.27349
2023-05-03 08:44:01+00:00,41.0,6.2,48.0,7.17,12.09,47.59359,-54.27349
2023-05-03 08:54:01+00:00,39.0,6.61,52.0,8.24,12.09,47.59359,-54.27349
2023-05-03 09:04:01+00:00,36.0,7.1,35.0,7.76,12.09,47.59359,-54.27349
2023-05-03 09:14:01+00:00,38.0,8.46,49.0,11.08,12.25,47.59359,-54.27349
2023-05-03 09:24:01+00:00,35.0,7.43,38.0,8.77,12.25,47.59359,-54.27349
2023-05-03 09:34:01+00:00,35.0,8.3,42.0,9.83,12.25,47.59359,-54.27349
2023-05-03 09:44:01+00:00,37.0,7.66,52.0,9.47,12.25,47.59359,-54.27349
2023-05-03 09:54:01+00:00,48.0,9.66,52.0,12.06,12.25,47.59359,-54.27349
2023-05-03 10:04:01+00:00,45.0,8.58,57.0,11.6,12.25,47.59359,-54.27349
2023-05-03 10:14:00+00:00,44.0,8.47,59.0,11.75,12.81,47.59359,-54.27349
2023-05-03 10:24:00+00:00,52.0,9.08,60.0,11.7,12.81,47.59359,-54.27349
2023-05-03 10:34:00+00:00,51.0,9.63,61.0,11.7,12.81,47.59359,-54.27349
2023-05-03 10:44:00+00:00,56.0,11.14,58.0,12.2,12.81,47.59359,-54.27349
2023-05-03 10:54:00+00:00,54.0,8.53,60.0,11.01,12.81,47.59359,-54.27349
2023-05-03 11:04:00+00:00,48.0,8.57,58.0,11.3,12.81,47.59359,-54.27349
2023-05-03 11:14:00+00:00,50.0,10.38,56.0,12.02,13.44,47.59359,-54.27349
2023-05-03 11:24:00+00:00,46.0,7.26,59.0,10.83,13.44,47.59359,-54.27349
2023-05-03 11:34:00+00:00,49.0,7.07,65.0,10.1,13.44,47.59359,-54.27349
2023-05-03 11:44:00+00:00,38.0,6.02,37.0,6.47,13.44,47.59359,-54.27349
2023-05-03 11:54:00+00:00,37.0,6.38,36.0,7.11,13.44,47.59359,-54.27349
2023-05-03 12:04:00+00:00,39.0,5.7,41.0,6.25,13.44,47.59359,-54.27349
2023-05-03 12:14:00+00:00,52.0,8.9,63.0,10.88,13.6,47.59359,-54.27349
2023-05-03 12:24:00+00:00,35.0,6.72,29.0,7.27,13.6,47.59359,-54.27349
2023-05-03 12:34:00+00:00,34.0,6.47,33.0,7.0,13.6,47.59359,-54.27349
2023-05-03 12:44:00+00:00,39.0,5.89,39.0,6.26,13.6,47.59359,-54.27349
2023-05-03 12:54:00+00:00,45.0,5.15,44.0,5.7,13.6,47.59359,-54.27349
2023-05-03 13:04:00+00:00,49.0,5.43,49.0,6.16,13.6,47.59359,-54.27349
2023-05-03 13:14:00+00:00,54.0,4.68,51.0,5.08,13.84,47.59359,-54.27349
2023-05-03 13:24:00+00:00,71.0,3.77,67.0,5.18,13.84,47.59359,-54.27349
2023-05-03 13:34:00+00:00,74.0,4.22,67.0,5.42,13.84,47.59359,-54.27349
2023-05-03 13:44:00+00:00,75.0,3.6,62.0,4.93,13.84,47.59359,-54.27349
2023-05-03 13:54:00+00:00,77.0,8.23,77.0,10.23,13.84,47.59359,-54.27349
2023-05-03 14:04:00+00:00,61.0,3.84,60.0,4.2,13.84,47.59359,-54.27349
2023-05-03 14:14:01+00:00,55.0,2.56,63.0,2.99,13.68,47.59359,-54.27349
2023-05-03 14:24:01+00:00,40.0,2.51,37.0,3.0,13.68,47.59359,-54.27349
2023-05-03 14:34:01+00:00,55.0,3.39,53.0,3.87,13.68,47.59359,-54.27349
2023-05-03 14:44:01+00:00,41.0,2.38,48.0,3.26,13.68,47.59359,-54.27349
2023-05-03 14:54:01+00:00,9.0,2.22,18.0,3.54,13.68,47.59359,-54.27349
2023-05-03 15:04:01+00:00,8.0,3.47,8.0,4.89,13.68,47.59359,-54.27349
2023-05-03 15:14:00+00:00,62.0,6.81,68.0,9.19,14.4,47.59359,-54.27349
2023-05-03 15:24:00+00:00,42.0,7.46,40.0,8.37,14.4,47.59359,-54.27349
2023-05-03 15:34:00+00:00,56.0,9.02,58.0,9.92,14.4,47.59359,-54.27349
2023-05-03 15:44:00+00:00,52.0,8.52,49.0,9.67,14.4,47.59359,-54.27349
2023-05-03 15:54:00+00:00,50.0,8.02,50.0,8.85,14.4,47.59359,-54.27349
2023-05-03 16:04:00+00:00,53.0,7.22,55.0,8.39,14.4,47.59359,-54.27349
2023-05-03 16:14:00+00:00,54.0,7.77,54.0,8.44,14.16,47.59359,-54.27349
2023-05-03 16:24:00+00:00,55.0,8.7,55.0,9.49,14.16,47.59359,-54.27349
2023-05-03 16:34:00+00:00,60.0,7.47,58.0,8.45,14.16,47.59359,-54.27349
2023-05-03 16:44:00+00:00,53.0,7.42,54.0,8.05,14.16,47.59359,-54.27349
2023-05-03 16:54:00+00:00,53.0,7.18,48.0,8.0,14.16,47.59359,-54.27349
2023-05-03 17:04:00+00:00,53.0,9.3,50.0,10.22,14.16,47.59359,-54.27349
2023-05-03 17:14:00+00:00,55.0,9.51,56.0,11.68,14.4,47.59359,-54.27349
2023-05-03 17:24:00+00:00,52.0,9.56,53.0,11.89,14.4,47.59359,-54.27349
2023-05-03 17:34:00+00:00,53.0,9.19,49.0,10.41,14.4,47.59359,-54.27349
2023-05-03 17:44:00+00:00,57.0,9.55,58.0,11.2,14.4,47.59359,-54.27349
2023-05-03 17:54:00+00:00,55.0,10.18,61.0,13.86,14.4,47.59359,-54.27349
2023-05-03 18:04:00+00:00,53.0,9.18,55.0,10.17,14.4,47.59359,-54.27349
2023-05-03 18:14:00+00:00,54.0,9.46,55.0,10.66,13.76,47.59359,-54.27349
2023-05-03 18:24:00+00:00,54.0,8.76,55.0,9.56,13.76,47.59359,-54.27349
2023-05-03 18:34:00+00:00,50.0,8.37,51.0,9.7,13.76,47.59359,-54.27349
2023-05-03 18:44:00+00:00,53.0,9.48,56.0,11.98,13.76,47.59359,-54.27349
2023-05-03 18:54:00+00:00,53.0,8.32,52.0,9.29,13.76,47.59359,-54.27349
2023-05-03 19:04:00+00:00,51.0,9.72,57.0,12.01,13.76,47.59359,-54.27349
2023-05-03 19:14:00+00:00,55.0,8.55,56.0,9.43,13.6,47.59359,-54.27349
2023-05-03 19:24:00+00:00,55.0,6.95,61.0,7.64,13.6,47.59359,-54.27349
2023-05-03 19:34:00+00:00,52.0,7.29,53.0,8.1,13.6,47.59359,-54.27349
2023-05-03 19:44:00+00:00,59.0,7.76,56.0,8.73,13.6,47.59359,-54.27349
2023-05-03 19:54:00+00:00,64.0,7.36,62.0,8.41,13.6,47.59359,-54.27349
2023-05-03 20:04:00+00:00,56.0,8.08,54.0,8.83,13.6,47.59359,-54.27349
2023-05-03 20:14:00+00:00,51.0,7.34,50.0,8.03,13.68,47.59359,-54.27349
2023-05-03 20:24:00+00:00,51.0,8.23,49.0,9.29,13.68,47.59359,-54.27349
2023-05-03 20:34:00+00:00,51.0,8.24,51.0,9.32,13.68,47.59359,-54.27349
2023-05-03 20:44:00+00:00,55.0,7.87,52.0,8.53,13.68,47.59359,-54.27349
2023-05-03 20:54:00+00:00,54.0,9.11,58.0,11.31,13.68,47.59359,-54.27349
2023-05-03 21:04:00+00:00,54.0,8.77,50.0,9.53,13.68,47.59359,-54.27349
2023-05-03 21:14:00+00:00,52.0,9.0,54.0,9.74,13.44,47.59359,-54.27349
2023-05-03 21:24:00+00:00,47.0,8.07,48.0,8.64,13.44,47.59359,-54.27349
2023-05-03 21:34:00+00:00,49.0,7.36,50.0,8.26,13.44,47.59359,-54.27349
2023-05-03 21:44:00+00:00,50.0,6.23,47.0,7.2,13.44,47.59359,-54.27349
2023-05-03 21:54:00+00:00,51.0,7.6,50.0,8.66,13.44,47.59359,-54.27349
2023-05-03 22:04:00+00:00,55.0,6.85,53.0,7.59,13.44,47.59359,-54.27349
2023-05-03 22:14:00+00:00,58.0,6.8,54.0,7.57,13.13,47.59359,-54.27349
2023-05-03 22:24:00+00:00,59.0,6.59,59.0,7.22,13.13,47.59359,-54.27349
2023-05-03 22:34:00+00:00,56.0,7.18,54.0,8.07,13.13,47.59359,-54.27349
2023-05-03 22:44:00+00:00,57.0,7.15,56.0,7.81,13.13,47.59359,-54.27349
2023-05-03 22:54:00+00:00,54.0,7.28,52.0,7.92,13.13,47.59359,-54.27349
2023-05-03 23:04:00+00:00,54.0,7.24,51.0,8.03,13.13,47.59359,-54.27349
2023-05-03 23:14:00+00:00,52.0,7.47,49.0,8.29,12.65,47.59359,-54.27349
2023-05-03 23:24:00+00:00,54.0,8.15,54.0,9.22,12.65,47.59359,-54.27349
2023-05-03 23:34:00+00:00,55.0,7.3,52.0,8.2,12.65,47.59359,-54.27349
2023-05-03 23:44:00+00:00,51.0,7.64,51.0,8.54,12.65,47.59359,-54.27349
2023-05-03 23:54:00+00:00,43.0,9.01,46.0,10.22,12.65,47.59359,-54.27349
